Regional Weather Roundup
Issued by NWS Northern Indiana

Home | Current Version | Previous Version | Graphics & Text | Print | Product List | Glossary On
Versions: 1 2 3 4 5 6 7 8 9 10 11 12 13 14 15 16 17 18 19 20 21 22 23 24 25 26 27 28 29 30 31 32 33 34 35 36 37 38 39 40 41 42 43 44 45 46 47 48 49 50
000
ASUS43 KIWX 020000
RWRIWX

KIWX WEATHER ROUNDUP
NATIONAL WEATHER SERVICE NORTHERN INDIANA
800 PM EDT TUE SEP 01 2015

NOTE: "FAIR" INDICATES FEW OR NO CLOUDS BELOW 12,000 FEET WITH NO
SIGNIFICANT WEATHER AND/OR OBSTRUCTIONS TO VISIBILITY.

* THESE STATIONS ARE NOT UNDER NWS QUALITY CONTROL. THEY ALSO MAY NOT
  REPORT WEATHER SUCH AS PRECIPITATION OR FOG.

INZ001>027-020100-
NORTHERN INDIANA

CITY           SKY/WX    TMP DP  RH WIND       PRES   REMARKS
GARY*          PTCLDY    86  68  54 S8        30.02S
KNOX*          CLEAR     79  68  69 SW6       30.03S
SOUTH BEND     PTCLDY    81  70  69 SW8       30.04S
6HR MIN TEMP:  81; 6HR MAX TEMP:  85;

ELKHART*       CLEAR     81  73  78 SW3       30.04S
GOSHEN         PTCLDY    80  70  71 S8        30.04S
6HR MIN TEMP:  80; 6HR MAX TEMP:  88;

MONTICELLO*    CLEAR     79  69  70 SW6       30.05S
6HR MIN TEMP:  79; 6HR MAX TEMP:  86;

WARSAW*        CLEAR     81  68  65 SW3       30.06S
ANGOLA*        CLEAR     81  72  74 SW5       30.05F
FORT WAYNE     CLEAR     78  69  73 SW9       30.07S
6HR MIN TEMP:  78; 6HR MAX TEMP:  86;

PERU/GRISSOM   CLEAR     79  69  70 SW8       30.06S
6HR MIN TEMP:  79; 6HR MAX TEMP:  87;


$$
INZ028>050-020100-
CENTRAL INDIANA

CITY           SKY/WX    TMP DP  RH WIND       PRES   REMARKS
LAFAYETTE      CLEAR     79  67  66 CALM      30.06R
6HR MIN TEMP:  79; 6HR MAX TEMP:  87;

KOKOMO*        CLEAR     81  64  57 SW10      30.07S
6HR MIN TEMP:  81; 6HR MAX TEMP:  88;

MUNCIE*        CLEAR     78  69  73 SW5       30.08S
6HR MIN TEMP:  71; 6HR MAX TEMP:  85; 6HR PCP: TRACE;

INDIANAPOLIS   PTCLDY    79  65  62 S8        30.08S
6HR MIN TEMP:  79; 6HR MAX TEMP:  86;


$$
MIZ043>046-050>051-056>058-064>065-071>073-077>080-020100-
SOUTHWEST LOWER MICHIGAN

CITY           SKY/WX    TMP DP  RH WIND       PRES   REMARKS
BATTLE CREEK   PTCLDY    81  71  71 SW6       30.05R
6HR MIN TEMP:  81; 6HR MAX TEMP:  89;

BENTON HARBOR  CLEAR     80  73  79 CALM      30.01F
6HR MIN TEMP:  80; 6HR MAX TEMP:  86;

COLDWATER*     CLEAR     78  68  72 SW3       30.05S
6HR MIN TEMP:  78; 6HR MAX TEMP:  86;

HILLSDALE*     PTCLDY    80  70  70 SW3       30.07S
HOLLAND        CLEAR     80  70  71 SW8       30.02S
6HR MIN TEMP:  80; 6HR MAX TEMP:  88;

GRAND RAPIDS   PTCLDY    82  74  76 W10       30.02R
6HR MIN TEMP:  82; 6HR MAX TEMP:  88;

KALAMAZOO      PTCLDY    81  71  71 CALM      30.04R
6HR MIN TEMP:  80; 6HR MAX TEMP:  89;

STURGIS*       CLEAR     75  72  88 CALM      30.04S
THREE RIVERS*  FAIR      78  70  78 CALM      30.04S

$$
OHZ001>008-015>018-024>025-020100-
NORTHWEST OHIO

CITY           SKY/WX    TMP DP  RH WIND       PRES   REMARKS
DEFIANCE       CLEAR     81  68  64 SW5       30.06R
6HR MIN TEMP:  81; 6HR MAX TEMP:  89;

FINDLAY        PTCLDY    77  68  73 SW8       30.07R
6HR MIN TEMP:  77; 6HR MAX TEMP:  88;

TOLEDO EXPRESS CLEAR     78  71  79 S5        30.04R
6HR MIN TEMP:  78; 6HR MAX TEMP:  88;

TOLEDO METCALF CLEAR     83  67  58 S5        30.05R
6HR MIN TEMP:  83; 6HR MAX TEMP:  89;

LIMA           MOCLDY    78  69  73 SW6       30.09R
6HR MIN TEMP:  78; 6HR MAX TEMP:  87;


$$
AND FOR LAKE MICHIGAN COASTAL AND OPEN LAKE BUOY OBSERVATIONS

STATION/POSITION TEMP    WIND        PRES    VSBY  WAVE
                 AIR SEA DIR/SP/G                  HT/PER
                 (F)     (DEG/KT/KT) (MB)    (MI)  (FT/S)
CALUMET HARBOR    85     210/  8/ 11   N/A
MICHIGAN CITY     83     170/ 10/ 12   N/A
BURNS HARBOR      85     190/  8/ 13 1016.6S
SAINT JOSEPH      80     180/  7/ 10 1016.9R
SOUTH LAKE BUOY   74 70  180/ 12/ 12 1014.8F         1/ 3
4 MI NW BRIDGMAN  75 74  230/  4/  4   N/A           1/ 3
MICHIGAN CITY     79 73  200/  6/  8   N/A           1

$$
&&


USA.gov is the U.S. government's official web portal to all federal, state and local government web resources and services.